Other Public Products
Issued by NWS Grand Forks, ND

Home | Current Version | Previous Version | Text Only | Print | Product List | Glossary Off
Versions: 1 2 3 4 5 6 7 8 9 10 11 12 13 14 15 16 17 18 19 20 21 22 23 24 25 26 27 28 29 30 31 32 33 34 35 36 37 38 39 40 41 42 43 44 45 46 47 48 49 50

787
FPUS83 KFGF 200610
OPUFGF
PRAIRIE TO PINES WEATHER ROUNDUP
NATIONAL WEATHER SERVICE EASTERN NORTH DAKOTA/GRAND FORKS ND
1200 AM CST MON FEB 20 2017

 **SATELLITE DATA USED TO AUGMENT SKY COVER AT AUTOMATED STATIONS**
 *****  WEATHER ACROSS EASTERN NORTH DAKOTA  *****

CITY           SKY/WX    TMP DP  RH WIND       PRES   REMARKS
GRAND FORKS    FAIR      41  35  79 SE15      29.59F
6HR MIN TEMP:  40; 6HR MAX TEMP:  43;

GRAND FORKS AF FAIR      39  39 100 S9        29.59F
GRAND CITY NWS NOT AVBL
BUXTON         NOT AVBL
DEVILS LAKE    FOG       36  36 100 SE5       29.55S VSB 1/4
6HR MIN TEMP:  35; 6HR MAX TEMP:  38;

FARGO          FAIR      52  48  86 SE17G28   29.61F
6HR MIN TEMP:  51; 6HR MAX TEMP:  53;

WAHPETON ARPT  FAIR      48  45  87 SE14      29.66R
$$

 *****  WEATHER ACROSS CENTRAL AND WESTERN NORTH DAKOTA  *****

CITY           SKY/WX    TMP DP  RH WIND       PRES   REMARKS
JAMESTOWN      FAIR      40  40 100 S9        29.54F FOG
6HR MIN TEMP:  40; 6HR MAX TEMP:  44;

BISMARCK       FAIR      37  34  89 CALM      29.52F
6HR MIN TEMP:  36; 6HR MAX TEMP:  40;

MINOT          MOCLDY    33  31  92 W5        29.55R FOG
6HR MIN TEMP:  31; 6HR MAX TEMP:  37;

MINOT AFB      FRZ DRZL  32  32 100 SW3       29.55R VSB 1/2
GARRISON         N/A     34  32  92 NW10      29.53S
6HR MIN TEMP:  32; 6HR MAX TEMP:  37;

WILLISTON      FOG       33  30  88 CALM      29.61R VSB 1/2
6HR MIN TEMP:  33; 6HR MAX TEMP:  37;

DICKINSON      CLOUDY    37  34  89 W10       29.54R
6HR MIN TEMP:  37; 6HR MAX TEMP:  48;

HETTINGER      CLOUDY    40  35  83 W12       29.55R
6HR MIN TEMP:  37; 6HR MAX TEMP:  53;

$$

 *****  OTHER OBSERVATIONS NORTHEAST NORTH DAKOTA  *****

CITY           SKY/WX    TMP DP  RH WIND       PRES   REMARKS
WALHALLA       NOT AVBL
LANGDON        NOT AVBL
CAVALIER       CLOUDY    37  36  93 SE5       29.60S
GRAFTON        FAIR      36  36 100 SE8       29.62S
CANDO          NOT AVBL
FORT TOTTEN      N/A     38  38 100 SE9       29.95S
ROLLA          FOG       32  32 100 SW12      29.55R VSB 1/4 WCI  23
RUGBY            N/A     32  32 100 CALM      29.53F FOG
 ***** THE ABOVE OBSERVATIONS ARE NON NWS ARE NOT QUALITY
        CONTROLLED AND MAY MIS-REPORT RAIN FOR SNOW...
$$

 *****  OTHER OBSERVATIONS SOUTHEAST NORTH DAKOTA *****

CITY           SKY/WX    TMP DP  RH WIND       PRES   REMARKS
COOPERSTOWN    FAIR      39  39 100 SE13      29.57F FOG
VALLEY CITY    FAIR      43  43 100 SE13      29.58F
OAKES          NOT AVBL
GWINNER        FAIR      46  45  93 SE9       29.60S
BUFFALO        NOT AVBL
WYNDMERE       NOT AVBL
 ***** THE ABOVE OBSERVATIONS ARE NON NWS ARE NOT QUALITY
       CONTROLLED AND MAY MIS-REPORT RAIN FOR SNOW...
$$

  *****  WEATHER ACROSS NORTHERN MINNESOTA  *****

CITY           SKY/WX    TMP DP  RH WIND       PRES   REMARKS
FLAG ISLAND    FAIR      41  30  65 SE12G17   29.74F
WARROAD        MOCLDY    45  36  70 SE18      29.71F
ROSEAU         FAIR      43  36  75 SE18      29.69F
HALLOCK        FAIR      39  36  87 SE18      29.61S
THF RVR FALLS  FAIR      41  37  86 SE14      29.67S
6HR MIN TEMP:  40; 6HR MAX TEMP:  42;

HALSTAD          N/A     42  41  97 SE12        N/A
FOSSTON        FAIR      45  39  81 SE13G22   29.68F
BAUDETTE       FAIR      42  30  62 SE14      29.75F
6HR MIN TEMP:  39; 6HR MAX TEMP:  42;

WASKISH        FAIR      45  34  65 SE13G21   29.76F
CROOKSTON      FAIR      43  41  93 SE15      29.63F
$$
  *****  WEATHER ACROSS CENTRAL AND WEST MINNESOTA  *****

CITY           SKY/WX    TMP DP  RH WIND       PRES   REMARKS
BEMIDJI        FAIR      40  33  76 SE10      29.75S
PARK RAPIDS    FAIR      45  38  76 SE14      29.73F
6HR MIN TEMP:  44; 6HR MAX TEMP:  48;

WADENA         FAIR      43  39  87 SE8       29.74S
DETROIT LAKES  FAIR      45  41  87 SE13      29.70S
MOORHEAD       FAIR      50  46  87 S23       29.63F
FERGUS FALLS   FAIR      52  46  82 SE17G26   29.71S
ELBOW LAKE     MOCLDY    51  48  87 E20G30    29.69S
MORRIS MN      FAIR      50  46  87 SE14      29.69S
STAPLES        FAIR      46  39  76 SE8       29.76F
WHEATON        FAIR      50  46  87 SE18      29.66S
$$
  *****  WEATHER ELSEWHERE ACROSS MINNESOTA  *****

CITY           SKY/WX    TMP DP  RH WIND       PRES   REMARKS
DULUTH         FAIR      37  31  78 E15       29.92F
6HR MIN TEMP:  36; 6HR MAX TEMP:  38;

INTRNTL FALLS  FAIR      40  28  62 SE13      29.85F
6HR MIN TEMP:  39; 6HR MAX TEMP:  43;

ELY            FAIR      37  28  70 SE10      29.95S
CLOQUET        FAIR      36  30  80 E8        29.91F
BRAINERD       FAIR      48  38  68 SE15G22   29.81S
6HR MIN TEMP:  47; 6HR MAX TEMP:  50;

HIBBING        FAIR      35  29  78 E7        29.88F
6HR MIN TEMP:  35; 6HR MAX TEMP:  41;

ALEXANDRIA     FAIR      48  45  89 SE12      29.74F
6HR MIN TEMP:  47; 6HR MAX TEMP:  51;

SAINT CLOUD    FAIR      48  42  80 E6        29.81R
6HR MIN TEMP:  47; 6HR MAX TEMP:  53;

MINNEAPOLIS    MOCLDY    49  38  65 SE9       29.87S
6HR MIN TEMP:  49; 6HR MAX TEMP:  53;

$$

  *****  WEATHER ACROSS SOUTH DAKOTA  *****

CITY           SKY/WX    TMP DP  RH WIND       PRES   REMARKS
SIOUX FALLS    CLOUDY    55  51  86 S12       29.72F
6HR MIN TEMP:  55; 6HR MAX TEMP:  60;

BROOKINGS      FAIR      51  47  86 S12       29.69F
WATERTOWN      FAIR      50  46  86 S16       29.65F
6HR MIN TEMP:  49; 6HR MAX TEMP:  53;

HURON          FAIR      54  49  83 S14       29.60F
6HR MIN TEMP:  53; 6HR MAX TEMP:  59;

SISSETON         N/A     54  48  80 S18       29.61F
ABERDEEN       CLOUDY    53  46  77 S22G29    29.59R
6HR MIN TEMP:  51; 6HR MAX TEMP:  54;

MITCHELL       FAIR      56  50  80 S18G25    29.64F
PIERRE         FAIR      58  40  51 S12       29.56R
6HR MIN TEMP:  53; 6HR MAX TEMP:  60;

MOBRIDGE       MOCLDY    44  35  70 SE12      29.52R
RAPID CITY     CLOUDY    56  35  45 W7        29.54F
6HR MIN TEMP:  52; 6HR MAX TEMP:  59;

$$

  *****  SOME WEATHER IN NEARBY STATES *****

CITY           SKY/WX    TMP DP  RH WIND       PRES   REMARKS
GLASGOW MT     FOG       26  24  92 S9        29.60R VSB<1/4 WCI  17
6HR MIN TEMP:  26; 6HR MAX TEMP:  34;

GREAT FALLS MT FAIR      33  28  81 SW13      29.65R WCI  24
6HR MIN TEMP:  29; 6HR MAX TEMP:  49; 6HR PCP:  0.01;

CHEYENNE WY    CLOUDY    42  22  44 NW20G31   29.74R
6HR MIN TEMP:  41; 6HR MAX TEMP:  54; 6HR PCP: TRACE;

SCOTTSBLUFF NE CLOUDY    47  37  68 W18G33    29.66R
6HR MIN TEMP:  47; 6HR MAX TEMP:  54;

OMAHA NE       FAIR      56  50  80 SE13      29.81F
6HR MIN TEMP:  56; 6HR MAX TEMP:  69;

DES MOINES IA  CLOUDY    58  46  64 SE9       29.90R
6HR MIN TEMP:  58; 6HR MAX TEMP:  67;

DAVENPORT IA   FAIR      55  47  74 SE13      30.02R
6HR MIN TEMP:  55; 6HR MAX TEMP:  60;

CHICAGO IL     MOCLDY    45  31  58 E3        30.11S
6HR MIN TEMP:  43; 6HR MAX TEMP:  56;

EAU CLAIRE WI  FAIR      50  36  58 S6        29.95S
6HR MIN TEMP:  49; 6HR MAX TEMP:  54;

LA CROSSE WI   FAIR      46  36  68 S5        29.98S
6HR MIN TEMP:  46; 6HR MAX TEMP:  59;

$$

  *****  SOME NATIONAL WEATHER *****

CITY           SKY/WX    TMP DP  RH WIND       PRES   REMARKS
LA GUARDIA NY  FAIR      53  33  46 NW13      30.00R
6HR MIN TEMP:  53; 6HR MAX TEMP:  59;

RALEIGH NC     FAIR      51  40  65 CALM      30.10S
6HR MIN TEMP:  51; 6HR MAX TEMP:  63;



USA.gov is the U.S. government's official web portal to all federal, state and local government web resources and services.